TimeMDT,TemperatureF,Dew PointF,Humidity,Sea Level PressureIn,VisibilityMPH,Wind Direction,Wind SpeedMPH,Gust SpeedMPH,PrecipitationIn,Events,Conditions,WindDirDegrees,DateUTC
12:53 AM,45.0,33.1,63,30.06,10.0,NNE,4.6,-,N/A,,Clear,20,2013-05-09 06:53:00
1:53 AM,44.1,35.1,71,30.05,10.0,NNE,3.5,-,N/A,,Clear,30,2013-05-09 07:53:00
2:53 AM,39.0,33.1,79,30.07,10.0,Calm,Calm,-,N/A,,Clear,0,2013-05-09 08:53:00
3:48 AM,41.0,33.8,76,30.18,10.0,NW,3.5,-,N/A,,Mostly Cloudy,310,2013-05-09 09:48:00
3:53 AM,39.9,34.0,79,30.08,10.0,NW,3.5,-,N/A,,Mostly Cloudy,320,2013-05-09 09:53:00
4:53 AM,39.0,33.1,79,30.08,10.0,NNW,3.5,-,N/A,,Overcast,330,2013-05-09 10:53:00
5:53 AM,39.9,34.0,79,30.10,10.0,Calm,Calm,-,N/A,,Overcast,0,2013-05-09 11:53:00
6:53 AM,46.9,37.9,71,30.08,10.0,Calm,Calm,-,N/A,,Mostly Cloudy,0,2013-05-09 12:53:00
7:53 AM,50.0,39.9,68,30.09,10.0,Calm,Calm,-,N/A,,Mostly Cloudy,0,2013-05-09 13:53:00
8:53 AM,54.0,37.9,55,30.09,10.0,Calm,Calm,-,N/A,,Clear,0,2013-05-09 14:53:00
9:53 AM,57.9,28.9,33,30.08,10.0,Calm,Calm,-,N/A,,Overcast,0,2013-05-09 15:53:00
10:53 AM,55.0,36.0,49,30.09,10.0,WNW,3.5,-,N/A,,Overcast,300,2013-05-09 16:53:00
11:53 AM,55.0,37.0,51,30.09,10.0,SSE,10.4,-,N/A,,Overcast,160,2013-05-09 17:53:00
12:53 PM,51.1,41.0,68,30.12,10.0,SE,5.8,-,0.00,Rain,Light Rain,130,2013-05-09 18:53:00
1:28 PM,48.2,41.0,76,30.21,8.0,WSW,8.1,-,0.00,Rain,Light Rain,240,2013-05-09 19:28:00
1:53 PM,44.1,41.0,89,30.19,2.0,West,6.9,-,0.03,Rain,Rain,270,2013-05-09 19:53:00
2:01 PM,44.6,41.0,87,30.22,1.2,WSW,6.9,-,0.03,Rain,Rain,240,2013-05-09 20:01:00
2:06 PM,42.8,41.0,93,30.21,2.0,WSW,5.8,-,0.04,Rain,Light Rain,240,2013-05-09 20:06:00
2:15 PM,44.6,41.0,87,30.20,3.0,SSW,5.8,-,0.05,Rain,Rain,210,2013-05-09 20:15:00
2:25 PM,44.6,41.0,87,30.20,7.0,Calm,Calm,-,0.06,Rain,Light Rain,0,2013-05-09 20:25:00
2:37 PM,46.4,42.8,87,30.20,10.0,South,5.8,-,0.06,,Scattered Clouds,180,2013-05-09 20:37:00
2:53 PM,48.0,43.0,83,30.16,10.0,South,8.1,-,0.06,,Clear,180,2013-05-09 20:53:00
3:54 PM,45.0,39.9,82,30.20,3.0,WNW,12.7,29.9,0.00,Rain,Rain,300,2013-05-09 21:54:00
3:59 PM,44.6,39.2,81,30.22,1.8,West,5.8,29.9,0.03,Rain,Heavy Rain,260,2013-05-09 21:59:00
4:12 PM,42.8,39.2,87,30.22,3.0,West,5.8,-,0.08,Rain,Rain,260,2013-05-09 22:12:00
4:53 PM,43.0,41.0,93,30.17,10.0,South,5.8,-,0.11,Rain,Light Rain,170,2013-05-09 22:53:00
5:53 PM,48.0,41.0,77,30.14,10.0,Calm,Calm,-,0.00,,Partly Cloudy,0,2013-05-09 23:53:00
6:53 PM,48.0,42.1,80,30.11,10.0,Calm,Calm,-,N/A,,Clear,0,2013-05-10 00:53:00
7:53 PM,44.1,41.0,89,30.12,10.0,Calm,Calm,-,N/A,,Clear,0,2013-05-10 01:53:00
8:53 PM,42.1,39.9,92,30.14,10.0,NW,3.5,-,N/A,,Partly Cloudy,320,2013-05-10 02:53:00
9:53 PM,41.0,39.0,93,30.13,10.0,Calm,Calm,-,N/A,,Scattered Clouds,0,2013-05-10 03:53:00
10:53 PM,39.0,37.0,93,30.15,3.0,Calm,Calm,-,N/A,,Clear,0,2013-05-10 04:53:00
11:53 PM,37.9,37.0,97,30.15,6.0,Calm,Calm,-,N/A,,Clear,0,2013-05-10 05:53:00